Flag for Germany Weather past 2 weeks in Kulmbach, Bavaria, Germany

Now
57 °F

Cool.


Feels Like: 57 °F
Forecast: 56 / 77 °F
Wind: 5 mph from North

Location: Hof Airport

Current Time: Jul 24, 2014 at 2:31:02 AM

Latest Report: Jul 24, 2014 at 1:50 AM


Visibility: N/A

Pressure: 30.01 "Hg

Humidity: 72%

Dew point: 48 °F

Location of KulmbachLocation

Historic Weather in Kulmbach — Graph

°F

Kulmbach temperature yesterday

Maximum temperature yesterday: 77 °F (at 3:20 PM)
Minimum temperature yesterday: 54 °F (at 4:50 AM)
Average temperature yesterday: 67 °F

Past Weeks' High & Low Weather Summary

 TemperatureHumidityPressure
High88 °F (Jul 20, 2:50 PM)94% (Jul 9, 3:50 AM)30.24 "Hg (Jul 9, 3:50 AM)
Low48 °F (Jul 11, 4:20 AM)24% (Jul 19, 5:20 PM)29.62 "Hg (Jul 9, 4:50 AM)
Average64 °F69%29.99 "Hg
* Reported Jul 9 1:20 AM — Jul 24 1:20 AM, Kulmbach, Weather by CustomWeather, © 2014

Note: Actual official high and low records may vary slightly from our data, if they occured in-between our weather recording intervals... More about our weather records

Advertising

Kulmbach weather history for previous 24 hours

 ConditionsComfort  
Time TempWeatherWind HumidityBarometerVisibility
1:20 AM
Jul 24
59 °FCool.7 mph68%30.04 "HgN/A
12:50 AM59 °FCool.5 mph68%30.04 "HgN/A
12:20 AM61 °FRefreshingly cool.6 mph59%30.04 "HgN/A
11:50 PM
Jul 23
63 °FMild.7 mph56%30.04 "HgN/A
11:20 PM63 °FMild.9 mph56%30.04 "HgN/A
10:50 PM63 °FMild.9 mph56%30.04 "HgN/A
10:20 PM59 °FCool.3 mph72%30.04 "HgN/A
9:50 PM64 °FMild.6 mph56%30.04 "HgN/A
9:20 PM68 °FMild.6 mph46%30.04 "HgN/A
8:50 PM68 °FMild.6 mph49%30.04 "HgN/A
8:20 PMN/A9 mphN/A30.04 "HgN/A
7:50 PM72 °FSunny.9 mph41%30.04 "Hg10 mi
7:20 PM73 °FSunny.14 mph38%30.04 "Hg10 mi
6:50 PM73 °FSunny.14 mph38%30.04 "Hg10 mi
6:20 PM73 °FPassing clouds.12 mph38%30.04 "HgN/A
5:50 PM75 °FPassing clouds.14 mph34%30.04 "HgN/A
5:20 PM75 °FPassing clouds.12 mph36%30.04 "HgN/A
4:50 PM75 °FPassing clouds.8 mph39%30.04 "HgN/A
4:20 PM73 °FPassing clouds.12 mph38%30.04 "HgN/A
3:50 PM75 °FPassing clouds.14 mph36%30.07 "HgN/A
3:20 PM77 °FPassing clouds.12 mph42%30.07 "HgN/A
2:50 PM75 °FPassing clouds.14 mph39%30.07 "HgN/A
2:20 PM75 °FPassing clouds.16 mph41%30.07 "HgN/A
1:50 PM75 °FPassing clouds.15 mph41%30.09 "HgN/A
1:20 PM75 °FSunny.17 mph44%30.09 "Hg10 mi
11:50 AM73 °FPassing clouds.13 mph47%30.09 "HgN/A
11:20 AM73 °FPassing clouds.13 mph50%30.09 "HgN/A
10:50 AM73 °FPassing clouds.12 mph50%30.09 "HgN/A
9:50 AM70 °FPassing clouds.8 mph60%30.09 "HgN/A
7:50 AM61 °FSunny.7 mph77%30.09 "Hg10 mi
7:20 AM59 °FSunny.6 mph82%30.09 "Hg10 mi
6:50 AM59 °FSunny.6 mph77%30.09 "Hg10 mi
6:20 AM59 °FCool.7 mph77%30.09 "HgN/A
5:50 AM57 °FCool.6 mph82%30.09 "HgN/A
5:20 AM55 °FCool.5 mph88%30.09 "HgN/A
4:50 AM54 °FCool.5 mph88%30.09 "HgN/A
4:20 AM57 °FCool.3 mph82%30.09 "HgN/A
3:50 AM59 °FCool.5 mph77%30.09 "HgN/A
3:20 AM59 °FCool.6 mph77%30.09 "HgN/A
2:50 AM61 °FCool.6 mph72%30.09 "HgN/A
2:20 AM61 °FCool.6 mph72%30.09 "HgN/A
Weather by CustomWeather, © 2014

See weather overviewHow to use our weather pages